Location: Christchurch
(43.5330°S, 172.6330°E)
Time: 10:18:54
(UTC+13:00)

IGS 5A - Pass Details

Date: 24 January 2019
Orbit: 585 x 588 km, 97.7° (Epoch: 03 October)

Event Time Altitude Azimuth Distance (km) Brightness Sun altitude
Rises 23:35:21 0° 161° (SSE) 2,859 7.5 -20.9°
Reaches altitude 10° 23:37:39 10° 153° (SSE) 1,948 6.5 -21.1°
Enters shadow 23:41:15 39° 97° (E) 906 4.2 -21.5°
